Weather in Chambarak

Armenia     40°35′44″N   45°21′23″E
temp.,
°C
wind,
m/s
gust,
m/s
humid.,
%
clouds,
%
prec.,
mm/h
press.,
hPa
HPBL,
m
6 may, thu
thu601:00+5nne2293100 0.4 1016370
04:00+5ne2289100 0.5 1015309
07:00+5nne2286100 0.1 1016278
10:00+7ne117551 0.1 1015548
13:00+8nnw116631 0.1 1014558
16:00+11nnw23522 0.3 1012780
19:00+10nne32663 0.1 1012361
22:00+8nne2282100 0.2 1014102
7 may, fri
fri701:00+7ne2178100 0.0 1014108
04:00+7nne2176100 0.0 1013131
07:00+7n3382100 0.0 1014180
10:00+9n337285 0.0 1015550
13:00+11nne4462100 0.1 10141147
16:00+11nne5462100 0.2 10141096
19:00+10nne336769 0.1 1015605
22:00+8nne338362 0.1 1019317
8 may, sat
sat801:00+7nne338040 0.0 1019377
04:00+7ene117833 0.0 1019237
07:00+8sse11755 0.0 1019290
10:00+10sse22654 0.0 1018519
13:00+12se125270 0.0 1017575
16:00+14nne11486 0.0 1015604
19:00+14nne336919 0.2 1015399
22:00+10n228432 0.3 101761
9 may, sun
sun901:00+10ne11803 0.2 101572
04:00+10sw11796 0.5 101565
07:00+10s22725 0.0 1014157
10:00+13s1257100 0.0 1013394
13:00+16wsw475062 0.0 1010686
16:00+18sw694922 0.0 1006869
19:00+11n4382100 1.4 1009133
22:00+7nnw3491100 6.4 1012374
10 may, mon
mon1001:00+8ne118297 2.1 1012337
04:00+8ene339195 4.1 1010316
07:00+4nne559799 2.7 1011303
10:00+1nw7995100 6.0 1017561
13:00+4nw787338 0.3 1017860
16:00+5n446459 0.3 1016912
19:00+4ne327380 0.0 1017573
22:00+2nne338638 0.0 1019286